Regional Weather Roundup
Issued by NWS

Home | Current Version | Previous Version | Graphics & Text | Print | Product List | Glossary On
Versions: 1 2 3 4 5 6 7 8 9 10 11 12 13 14 15 16 17 18 19 20 21 22 23 24 25 26 27 28 29 30 31 32 33 34 35 36 37 38 39 40 41 42 43 44 45 46 47 48 49 50
000
ASUS43 KFSD 261510
RWRSD

WEATHER ROUNDUP FOR SOUTH DAKOTA
NATIONAL WEATHER SERVICE SIOUX FALLS SD
1000 AM CDT SAT MAY 26 2018

NOTE: "FAIR" INDICATES FEW OR NO CLOUDS BELOW 12,000 FEET WITH NO
SIGNIFICANT WEATHER AND/OR OBSTRUCTIONS TO VISIBILITY.


SDZ001>005-009-010-012>017-261600-
NORTHWEST AND NORTH CENTRAL SOUTH DAKOTA

CITY           SKY/WX    TMP DP  RH WIND       PRES   REMARKS
BUFFALO          N/A     76  56  49 SE7       29.77F
FAITH            N/A     75  57  53 SE8       29.83S
MOBRIDGE       SUNNY     74  57  55 CALM      29.78S
$$

SDZ012>016-024>037-041>051-057-063-072>074-261600-
SOUTHWEST AND SOUTH CENTRAL SOUTH DAKOTA

CITY           SKY/WX    TMP DP  RH WIND       PRES   REMARKS
RAPID CTY ARPT SUNNY     71  60  68 SE7       29.84F
PIERRE         SUNNY     78  61  55 CALM      29.80F
CUSTER         SUNNY     72  46  39 VRB7      29.98F
ELLSWORTH AFB  SUNNY     74  62  66 S5        29.84F
PHILIP         SUNNY     74  63  68 E3        29.82F
PINE RIDGE     SUNNY     81  53  37 S12       29.86F
SPEARFISH      FAIR      75  59  57 NE6       29.85F
WINNER         FAIR      80  64  58 S6        29.84S
$$

SDZ004>011-016>023-039-040-261600-
NORTHEAST SOUTH DAKOTA

CITY           SKY/WX    TMP DP  RH WIND       PRES   REMARKS
ABERDEEN       SUNNY     84  56  38 NW3       29.77S
WATERTOWN      SUNNY     77  60  55 W6        29.79R
BROOKINGS      SUNNY     82  59  45 W10       29.79F
SISSETON         N/A     89  52  28 NW12      29.73R
$$

SDZ017-020-022-023-036>040-048>070-261600-
SOUTHEAST SOUTH DAKOTA

CITY           SKY/WX    TMP DP  RH WIND       PRES   REMARKS
SIOUX FALLS    SUNNY     81  62  52 W6        29.81R
HURON          SUNNY     79  58  48 CALM      29.79S
CHAMBERLAIN    SUNNY     81  62  53 W3        29.83S
MITCHELL       SUNNY     80  64  58 CALM      29.81S
YANKTON        SUNNY     81  63  54 CALM      29.82S
$$

ABBREVIATIONS USED IN REMARKS
   TC - TEMPERATURE IN CELSIUS
  WCI - WIND CHILL INDEX
   HX - HEAT INDEX
  VSB - VISIBILITY





USA.gov is the U.S. government's official web portal to all federal, state and local government web resources and services.